EA2MKR Weather Reports


time (UTC)temp
C
wind
direction
speed
KPH
gust
KPH
rain 1hr
cm
rain 24hr
cm
rain mn
cm
humidity
%
barometer
mb
20260502170234 12 262 0.0 9.7 0.05 2.24 2.24 93 952.9
20260502164218 13 321 1.6 6.4 0.15 2.18 2.24 92 952.7
20260502163921 13 272 1.6 6.4 0.15 2.18 2.24 93 952.7
20260502163419 13 327 4.8 6.4 0.15 2.18 2.24 92 952.7
20260502162708 13 327 3.2 8.0 0.15 2.18 2.24 92 952.8
20260502162209 13 338 3.2 11.3 0.15 2.18 2.21 92 952.8
20260502161707 13 336 8.0 11.3 0.15 2.18 2.21 92 952.8
20260502161205 13 312 3.2 6.4 0.15 2.18 2.21 92 952.8
20260502160705 13 321 1.6 6.4 0.13 2.18 2.21 92 952.8
20260502160204 13 317 1.6 9.7 0.10 2.18 2.18 92 952.8
20260502152136 13 300 14.5 22.5 0.03 2.08 2.08 90 953.3
20260502151843 13 338 11.3 17.7 0.08 2.08 2.08 88 953.3
20260502151135 13 271 8.0 11.3 0.15 2.08 2.08 88 953.2
20260502150635 13 317 4.8 8.0 0.20 2.08 2.08 87 953.3
20260502150135 13 309 3.2 11.3 0.23 2.08 2.08 87 953.2
20260502130607 13 113 0.0 1.6 0.38 1.30 1.30 90 954.9
20260502130126 13 113 0.0 0.0 0.58 1.30 1.30 92 954.7
20260502130107 13 151 0.0 0.0 0.58 1.30 1.30 92 954.7
20260502123815 12 278 0.0 4.8 1.17 0.71 1.30 91 955.2
20260502123127 12 257 1.6 4.8 1.17 0.71 1.30 89 955.2
20260502123106 12 257 1.6 9.7 1.17 0.71 1.30 89 955.2
20260502122607 12 314 0.0 17.7 1.27 0.71 1.27 88 955.4
20260502122125 12 323 6.4 19.3 1.24 0.71 1.24 87 955.5
20260502122107 12 309 6.4 19.3 1.24 0.71 1.22 87 955.5
20260502121623 12 180 8.0 29.0 1.17 0.71 1.17 87 955.8
20260502121607 12 180 8.0 29.0 1.17 0.71 1.14 87 955.8
20260502121106 12 324 6.4 38.6 1.07 0.71 1.07 90 955.9
20260502120621 12 20 14.5 38.6 0.91 0.71 0.91 91 956.1
20260502120607 12 73 12.9 38.6 0.91 0.71 0.89 92 956.1
20260502120116 12 157 8.0 17.7 0.71 0.71 0.71 91 955.6
20260502120109 12 176 9.7 17.7 0.71 0.71 0.71 91 955.6
20260502115614 13 80 9.7 19.3 0.66 0.00 0.64 91 955.7
20260502115607 13 90 9.7 29.0 0.66 0.00 0.64 91 955.7
20260502115111 13 78 8.0 29.0 0.51 0.00 0.51 92 955.5
20260502115106 13 59 8.0 29.0 0.51 0.00 0.51 92 955.5
20260502114612 13 79 12.9 29.0 0.36 0.00 0.28 92 955.6
20260502114606 13 99 11.3 27.4 0.36 0.00 0.28 92 955.6
20260502114107 13 107 9.7 27.4 0.18 0.00 0.15 90 955.2
20260502113611 13 113 6.4 27.4 0.15 0.00 0.15 90 955.2
20260502113607 13 121 6.4 27.4 0.15 0.00 0.15 89 955.2
20260502113314 13 62 9.7 27.4 0.13 0.00 0.13 88 955.0
20260502112606 14 93 20.9 27.4 0.00 0.00 0.00 88 955.2
20260502112106 14 87 17.7 27.4 0.00 0.00 0.00 86 955.3
20260502111606 15 100 11.3 20.9 0.00 0.00 0.00 85 955.4
20260502111106 15 124 0.0 4.8 0.00 0.00 0.00 82 955.4
20260502110606 15 237 1.6 4.8 0.00 0.00 0.00 83 955.2
20260502110106 15 234 1.6 6.4 0.00 0.00 0.00 82 955.3
20260502105607 16 235 3.2 11.3 0.00 0.00 0.00 81 955.4
20260502105106 16 259 6.4 11.3 0.00 0.00 0.00 79 955.5
20260502104606 16 299 6.4 11.3 0.00 0.00 0.00 79 955.5
20260502104104 16 292 6.4 9.7 0.00 0.00 0.00 79 955.5
20260502103812 16 264 4.8 8.0 0.00 0.00 0.00 79 955.6
20260502103104 16 313 6.4 14.5 0.00 0.00 0.00 79 955.6
20260502102812 16 252 4.8 14.5 0.00 0.00 0.00 79 955.8
20260502102104 16 288 9.7 16.1 0.00 0.00 0.00 78 955.8
20260502101604 16 204 9.7 16.1 0.00 0.00 0.00 78 955.8
20260502101105 16 257 3.2 14.5 0.00 0.00 0.00 80 956.0
20260502100812 16 309 4.8 9.7 0.00 0.00 0.00 80 955.9
20260502100313 16 248 4.8 8.0 0.00 0.00 0.00 80 956.0
20260502091247 15 248 3.2 11.3 0.00 0.00 0.00 81 956.3
20260502090539 15 244 4.8 11.3 0.00 0.00 0.00 81 956.3
20260502090245 15 259 6.4 14.5 0.00 0.00 0.00 81 956.3
20260502071302 15 314 8.0 20.9 0.00 0.00 0.00 82 956.6
20260502071248 15 321 8.0 22.5 0.00 0.00 0.00 82 956.6
20260502070802 15 295 9.7 24.1 0.00 0.00 0.00 81 956.5
20260502070746 15 288 9.7 24.1 0.00 0.00 0.00 81 956.5
20260502070458 15 305 17.7 25.7 0.00 0.00 0.00 80 956.5
20260502065801 15 281 12.9 25.7 0.00 0.00 0.00 80 956.4
20260502065746 15 228 12.9 25.7 0.00 0.00 0.00 79 956.4
20260502065305 15 279 12.9 24.1 0.00 0.00 0.00 79 956.6
20260502065246 15 283 11.3 24.1 0.00 0.00 0.00 79 956.6
20260502064953 15 282 12.9 20.9 0.00 0.00 0.00 80 956.7
20260502064302 15 300 11.3 17.7 0.00 0.00 0.00 80 956.7
20260502064247 15 283 9.7 17.7 0.00 0.00 0.00 80 956.7
20260502063801 15 317 8.0 17.7 0.00 0.00 0.00 80 956.6
20260502063745 15 313 8.0 17.7 0.00 0.00 0.00 80 956.6
20260502063302 15 323 9.7 17.7 0.00 0.00 0.00 80 956.5
20260502063246 15 288 11.3 17.7 0.00 0.00 0.00 79 956.5
20260502062802 15 316 12.9 17.7 0.00 0.00 0.00 79 956.4
20260502062746 15 286 12.9 17.7 0.00 0.00 0.00 79 956.4
20260502062258 15 283 11.3 22.5 0.00 0.00 0.00 79 956.3
20260502062246 15 278 11.3 22.5 0.00 0.00 0.00 79 956.3
20260502061751 15 295 12.9 22.5 0.00 0.00 0.00 78 956.3
20260502061250 15 223 8.0 17.7 0.00 0.00 0.00 79 956.4
20260502061246 15 286 8.0 17.7 0.00 0.00 0.00 79 956.4
20260502060745 15 299 9.7 16.1 0.00 0.00 0.00 78 956.5
20260502060246 15 259 8.0 16.1 0.00 0.00 0.00 78 956.5
20260502055744 15 312 3.2 16.1 0.00 0.00 0.00 78 956.6
20260502055246 15 275 6.4 17.7 0.00 0.00 0.00 77 956.7
20260502054744 15 285 9.7 19.3 0.00 0.00 0.00 77 956.7
20260502054245 15 281 6.4 19.3 0.00 0.00 0.00 77 956.5
20260502053744 15 285 9.7 19.3 0.00 0.00 0.00 76 956.6
20260502053258 15 271 6.4 16.1 0.00 0.00 0.00 76 956.7
20260502052744 15 269 8.0 16.1 0.00 0.00 0.00 76 956.7
20260502052245 14 321 11.3 11.3 0.00 0.00 0.00 76 956.8
20260502051952 14 207 3.2 14.5 0.00 0.00 0.00 76 956.7
20260502051245 14 296 4.8 14.5 0.00 0.00 0.00 76 956.7
20260502050744 14 307 8.0 14.5 0.00 0.00 0.00 76 956.8
20260502050244 14 254 3.2 4.8 0.00 0.00 0.00 76 956.7
20260502045743 14 252 1.6 4.8 0.00 0.00 0.00 76 956.8
20260502045244 14 257 1.6 4.8 0.00 0.00 0.00 76 956.8
20260502044743 14 227 1.6 6.4 0.00 0.00 0.00 75 956.7
20260502044244 14 237 1.6 6.4 0.00 0.00 0.00 75 956.7
20260502043742 14 233 1.6 4.8 0.00 0.00 0.00 75 956.6
20260502043243 14 237 1.6 4.8 0.00 0.00 0.00 75 956.7
20260502043005 14 235 4.8 6.4 0.00 0.00 0.00 76 956.7
20260502042504 14 235 4.8 6.4 0.00 0.00 0.00 76 956.7
20260502042000 14 216 3.2 4.8 0.00 0.00 0.00 76 956.8
20260502041500 14 276 1.6 4.8 0.00 0.00 0.00 76 957.0
20260502041000 14 235 1.6 4.8 0.00 0.00 0.00 76 957.0
20260502040709 14 262 1.6 6.4 0.00 0.00 0.00 76 956.9
20260502040208 14 286 3.2 6.4 0.00 0.00 0.00 76 956.9
20260502035708 14 262 1.6 4.8 0.00 0.00 0.00 76 956.8
20260502035000 14 257 3.2 8.0 0.00 0.00 0.00 76 956.8
20260502034459 14 240 3.2 8.0 0.00 0.00 0.00 75 956.7
20260502034208 14 262 3.2 4.8 0.00 0.00 0.00 76 956.7
20260502033459 14 243 1.6 4.8 0.00 0.00 0.00 76 956.9
20260502032459 14 240 1.6 6.4 0.00 0.00 0.00 76 956.8
20260502031958 14 271 3.2 8.0 0.00 0.00 0.00 75 956.7
20260502031458 14 299 3.2 17.7 0.00 0.00 0.00 75 956.9
20260502030959 14 231 4.8 17.7 0.00 0.00 0.00 75 956.9
20260502030459 14 278 3.2 8.0 0.00 0.00 0.00 75 957.0
20260502030207 14 303 4.8 8.0 0.00 0.00 0.00 75 957.0
20260502025459 14 257 3.2 9.7 0.00 0.00 0.00 76 957.1
20260502024958 14 303 4.8 9.7 0.00 0.00 0.00 76 957.0
20260502024706 14 295 8.0 11.3 0.00 0.00 0.00 75 957.1
20260502023958 14 303 6.4 11.3 0.00 0.00 0.00 76 957.1
20260502023706 14 307 4.8 9.7 0.00 0.00 0.00 77 957.1
20260502023206 14 282 6.4 9.7 0.00 0.00 0.00 77 957.0
20260502022457 14 290 6.4 8.0 0.00 0.00 0.00 77 957.1
20260502021957 14 292 4.8 8.0 0.00 0.00 0.00 77 957.1
20260502021457 14 269 3.2 9.7 0.00 0.00 0.00 77 957.0
20260502020957 14 259 3.2 9.7 0.00 0.00 0.00 77 957.1
20260502020706 14 285 6.4 11.3 0.00 0.00 0.00 77 957.1
20260502015957 14 283 4.8 11.3 0.00 0.00 0.00 77 957.0
20260502015457 14 278 1.6 8.0 0.00 0.00 0.00 77 957.0
20260502014957 14 230 1.6 8.0 0.00 0.00 0.00 76 957.1
20260502014457 14 250 3.2 4.8 0.00 0.00 0.00 76 957.3
20260502013957 14 235 0.0 3.2 0.00 0.00 0.00 76 957.2
20260502013456 14 220 1.6 3.2 0.00 0.00 0.00 76 957.2
20260502012956 14 262 1.6 8.0 0.00 0.00 0.00 76 957.1
20260502012456 14 216 3.2 8.0 0.00 0.00 0.00 76 957.2
20260502011956 15 231 3.2 6.4 0.00 0.00 0.00 75 957.1
20260502011456 15 288 3.2 6.4 0.00 0.00 0.00 75 957.2
20260502010956 15 289 4.8 9.7 0.00 0.00 0.00 74 957.3
20260502010456 15 285 3.2 11.3 0.00 0.00 0.00 74 957.4
20260502005955 15 286 8.0 11.3 0.00 0.00 0.00 73 957.3
20260502005456 15 254 4.8 14.5 0.00 0.00 0.00 74 957.3
20260502004955 15 310 6.4 19.3 0.00 0.00 0.00 74 957.4
20260502004455 15 240 6.4 19.3 0.00 0.00 0.00 74 957.3
20260502003955 15 231 9.7 22.5 0.00 0.00 0.00 74 957.2
20260502003455 15 296 11.3 22.5 0.00 0.00 0.00 74 957.3
20260502002955 15 233 8.0 22.5 0.00 0.00 0.00 74 957.3
20260502002454 15 207 9.7 22.5 0.00 0.00 0.00 74 957.4
20260502001955 15 286 9.7 20.9 0.00 0.00 0.00 73 957.4
20260502001701 15 237 9.7 20.9 0.00 0.00 0.00 73 957.4
20260502000952 15 235 8.0 17.7 0.00 0.00 0.00 73 957.5
20260502000450 15 292 9.7 17.7 0.00 0.00 0.00 73 957.4
20260501235936 15 262 9.7 19.3 0.00 0.00 0.00 73 957.5
20260501235435 15 292 9.7 22.5 0.00 0.00 0.00 73 957.5
20260501234934 15 248 8.0 22.5 0.00 0.00 0.00 73 957.7
20260501234434 15 274 8.0 17.7 0.00 0.00 0.00 74 957.8
20260501233933 15 300 8.0 16.1 0.00 0.00 0.00 75 957.8
20260501233434 15 289 6.4 16.1 0.00 0.00 0.00 75 957.9
20260501232934 15 274 6.4 14.5 0.00 0.00 0.00 76 957.8
20260501232433 15 296 6.4 11.3 0.00 0.00 0.00 76 957.8
20260501232142 15 293 6.4 11.3 0.00 0.00 0.00 75 957.9
20260501231433 15 299 6.4 14.5 0.00 0.00 0.00 75 957.8
20260501230934 15 292 8.0 17.7 0.00 0.00 0.00 74 957.7
20260501230433 15 309 9.7 17.7 0.00 0.00 0.00 75 957.6
20260501225933 15 261 9.7 17.7 0.00 0.00 0.00 75 957.6
20260501225433 15 275 8.0 14.5 0.00 0.00 0.00 75 957.6
20260501224933 15 319 8.0 11.3 0.00 0.00 0.00 75 957.7
20260501224641 15 317 4.8 9.7 0.00 0.00 0.00 76 957.7
20260501223934 15 276 6.4 9.7 0.00 0.00 0.00 76 957.7
20260501223434 15 276 3.2 6.4 0.00 0.00 0.00 76 957.8
20260501222933 15 289 3.2 9.7 0.00 0.00 0.00 76 957.9
20260501222642 15 4 4.8 9.7 0.00 0.00 0.00 75 958.0
20260501221934 16 327 1.6 9.7 0.00 0.00 0.00 74 958.1
20260501221433 16 258 3.2 9.7 0.00 0.00 0.00 73 957.9
20260501220933 16 254 4.8 8.0 0.00 0.00 0.00 74 957.9
20260501220433 16 268 4.8 8.0 0.00 0.00 0.00 74 957.8
20260501215933 16 254 3.2 11.3 0.00 0.00 0.00 75 957.9
20260501215641 16 235 4.8 11.3 0.00 0.00 0.00 75 957.8
20260501214933 16 278 1.6 4.8 0.00 0.00 0.00 75 957.9
20260501214641 16 228 0.0 6.4 0.00 0.00 0.00 74 957.9
20260501213933 16 238 1.6 6.4 0.00 0.00 0.00 74 957.8
20260501213433 16 276 1.6 4.8 0.00 0.00 0.00 74 957.7
20260501212934 15 235 0.0 3.2 0.00 0.00 0.00 75 957.7
20260501212433 16 296 0.0 4.8 0.00 0.00 0.00 74 957.7
20260501211933 16 296 0.0 4.8 0.00 0.00 0.00 73 957.7
20260501211434 16 247 1.6 3.2 0.00 0.00 0.00 74 957.5
20260501211142 16 279 0.0 4.8 0.00 0.00 0.00 74 957.5
20260501210434 16 282 0.0 4.8 0.00 0.00 0.00 75 957.4
20260501205934 15 288 1.6 4.8 0.00 0.00 0.00 76 957.4
20260501205642 15 298 1.6 3.2 0.00 0.00 0.00 76 957.4
20260501204934 15 305 0.0 3.2 0.00 0.00 0.00 76 957.3
20260501204434 15 234 0.0 1.6 0.00 0.00 0.00 76 957.2
20260501203934 15 185 0.0 6.4 0.00 0.00 0.00 75 957.2
20260501203434 16 127 3.2 6.4 0.00 0.00 0.00 74 957.1
20260501202934 16 244 3.2 6.4 0.00 0.00 0.00 74 957.1
20260501202433 16 278 0.0 3.2 0.00 0.00 0.00 75 957.2
20260501201933 16 133 0.0 1.6 0.00 0.00 0.00 74 957.1
20260501201434 16 127 0.0 8.0 0.00 0.00 0.00 73 957.2
20260501200934 16 295 1.6 8.0 0.00 0.00 0.00 71 957.2
20260501200434 16 265 3.2 8.0 0.00 0.00 0.00 71 957.1
20260501200143 16 272 3.2 4.8 0.00 0.00 0.00 71 957.0
20260501195642 17 235 1.6 3.2 0.00 0.00 0.00 71 957.0
20260501195142 17 259 1.6 3.2 0.00 0.00 0.00 70 957.0
20260501194434 17 254 1.6 4.8 0.00 0.00 0.00 70 956.9
20260501193934 17 269 3.2 4.8 0.00 0.00 0.00 70 956.8
20260501193620 17 238 3.2 4.8 0.00 0.00 0.00 70 956.8
20260501192908 17 243 1.6 6.4 0.00 0.00 0.00 69 956.7
20260501192409 17 227 1.6 9.7 0.00 0.00 0.00 70 956.6
20260501191905 17 324 4.8 9.7 0.00 0.00 0.00 69 956.5
20260501191405 17 316 4.8 9.7 0.00 0.00 0.00 70 956.6
20260501190906 17 324 3.2 14.5 0.00 0.00 0.00 68 956.6
20260501190405 17 298 6.4 14.5 0.00 0.00 0.00 68 956.6
20260501185905 17 329 9.7 16.1 0.00 0.00 0.00 68 956.7
20260501185405 18 327 8.0 19.3 0.00 0.00 0.00 67 956.5
20260501184905 18 340 12.9 19.3 0.00 0.00 0.00 67 956.5
20260501184405 18 323 11.3 19.3 0.00 0.00 0.00 67 956.5
20260501184112 18 324 12.9 25.7 0.00 0.00 0.00 66 956.5
20260501183407 18 331 9.7 32.2 0.00 0.00 0.00 66 956.5
20260501183403 18 331 9.7 32.2 0.00 0.00 0.00 66 956.5
20260501182908 18 326 20.9 32.2 0.00 0.00 0.00 64 956.5
20260501182903 18 336 20.9 32.2 0.00 0.00 0.00 64 956.5
20260501182405 19 289 19.3 30.6 0.00 0.00 0.00 64 956.3
20260501182400 19 309 19.3 30.6 0.00 0.00 0.00 64 956.3
20260501181905 19 286 20.9 29.0 0.00 0.00 0.00 64 956.2
20260501181901 19 286 20.9 29.0 0.00 0.00 0.00 64 956.2
20260501181402 19 257 8.0 17.7 0.00 0.00 0.00 63 956.0
20260501181358 19 289 8.0 17.7 0.00 0.00 0.00 63 956.0
20260501180903 20 276 6.4 22.5 0.00 0.00 0.00 62 955.9
20260501180859 20 272 6.4 22.5 0.00 0.00 0.00 62 955.9
20260501180402 20 289 9.7 24.1 0.00 0.00 0.00 61 955.9
20260501180356 20 316 9.7 24.1 0.00 0.00 0.00 61 955.9
20260501175859 20 288 12.9 24.1 0.00 0.00 0.00 62 955.8
20260501175851 20 286 12.9 24.1 0.00 0.00 0.00 62 955.8
20260501175359 20 276 6.4 11.3 0.00 0.00 0.00 63 955.7
20260501175354 20 298 8.0 11.3 0.00 0.00 0.00 63 955.7
20260501174857 20 289 4.8 16.1 0.00 0.00 0.00 63 955.7
20260501174850 20 279 6.4 16.1 0.00 0.00 0.00 63 955.7
20260501174357 20 255 9.7 19.3 0.00 0.00 0.00 61 955.7
20260501174351 20 312 9.7 19.3 0.00 0.00 0.00 61 955.7
20260501173857 20 320 11.3 27.4 0.00 0.00 0.00 62 955.7
20260501173849 20 314 11.3 27.4 0.00 0.00 0.00 62 955.7
20260501173354 20 324 16.1 27.4 0.00 0.00 0.00 61 955.7
20260501173350 20 305 16.1 27.4 0.00 0.00 0.00 61 955.7
20260501172853 20 303 11.3 16.1 0.00 0.00 0.00 62 955.7
20260501172849 20 292 11.3 16.1 0.00 0.00 0.00 62 955.7
20260501172357 20 299 8.0 19.3 0.00 0.00 0.00 60 955.6